Location: Hawks Ness
(60.2333°N, 1.1667°W)
Time: 07:06:34
(UTC+00:00)

Cosmos 2237 Rocket - Pass Details

Date: 22 October 2019
Orbit: 833 x 851 km, 71.0° (Epoch: 14 November)

Event Time Altitude Azimuth Distance (km) Brightness Sun altitude
Exits shadow 04:15:38 16° 194° (SSW) 2,061 3.9 -21.0°
Maximum altitude 04:20:03 57° 120° (ESE) 996 2.7 -20.5°
Drops below altitude 10° 04:25:38 10° 43° (NE) 2,493 5.4 -19.8°
Sets 04:28:08 0° 40° (NE) 3,432 6.2 -19.5°
